Beidou DW 19

operational
NORAD ID: 40748 Int'l Des: 2015-037 Owner: CNSA Country: CN Constellation: BeiDou
MEOCIRCULAR

Über Beidou DW 19

Beschreibung wird geladen...

Live-Position

3D-Globus wird geladen...

Nächste Überflüge

Höhenverlauf

Altitude vs Time

uPlot chart will show altitude changes over time

Zweizeiliger Elementsatz

1 40748U 15037A 25258.40323123 -.00000054 00000-0 00000-0 0 9999
2 40748 55.1131 311.4969 0011825 252.5826 107.3521 1.86229048 69005
Epoch: 15. Sept. 2025 • Age: 25 hours

Aktueller Status

Höhe 21528.7 km
Geschwindigkeit 3.78 km/s
Subsatellitenpunkt -21.82°S, 142.34°E
Startdatum 25. Juli 2015
Alter 10.1 years
Typ navigation

Technische Details

Klassifizierung Payload
Masse 1014.00 kg
Trockenmasse 850.00 kg
Gesamtmasse 1014.00 kg
Länge 2.20 m
Durchmesser 1.70 m
Spannweite 10.00 m
Form Box + 2 Pan
Hersteller CAST
Bus-Typ BD-3M
Phasenstatus In Orbit
Besitzer/Staat CNSA/CN

Große Konstellationen

Loading constellations...